This demonstration page uses our WeatherBlox Daily Observations layout. Learn more.

Left ArrowRight Arrow

Hourly Observations for October 24, 2020

Temp ( °F °C ) Dew Point ( °F °C ) Humidity (%) Winds ( mph kmh ) Pressure ( in mb ) Visibility ( mi km ) Precip ( " mm )
12:15 am 00:15 Cloudy 29 -1.6 23 -5.1 77 77 SSE 3 6 30.46 1032 10 16 N/A
12:35 am 00:35 Cloudy 29 -1.5 23 -5.1 77 77 SE 5 7 30.45 1031 10 16 N/A
12:55 am 00:55 Cloudy 29 -1.6 23 -5.1 77 77 SE 5 7 30.44 1031 10 16 N/A
1:15 am 01:15 Cloudy 29 -1.6 23 -5.2 77 77 ESE 6 9 30.43 1031 10 16 N/A
1:35 am 01:35 Cloudy 29 -1.6 22 -5.3 76 76 SE 6 9 30.42 1030 10 16 N/A
1:55 am 01:55 Cloudy 29 -1.6 23 -5.2 77 77 SSE 6 9 30.41 1030 10 16 N/A
2:15 am 02:15 Cloudy 29 -1.5 23 -5.1 77 77 SE 6 9 30.40 1029 10 16 N/A
2:35 am 02:35 Cloudy 29 -1.5 23 -5.1 77 77 SE 8 13 30.39 1029 10 16 N/A
2:55 am 02:55 Cloudy 29 -1.5 23 -5.1 77 77 SE 9 15 30.38 1029 10 16 N/A
3:15 am 03:15 Cloudy 29 -1.5 23 -5 77 77 SE 6 9 30.37 1028 10 16 N/A
3:35 am 03:35 Cloudy 29 -1.5 23 -4.9 78 78 SSE 9 15 30.37 1028 10 16 N/A
3:55 am 03:55 Cloudy 30 -1.3 24 -4.6 79 79 SSE 8 13 30.35 1028 10 16 N/A
4:15 am 04:15 Cloudy 30 -1.3 24 -4.7 78 78 SSE 8 13 30.34 1027 10 16 N/A
4:35 am 04:35 Cloudy 30 -1.2 24 -4.5 79 79 S 8 13 30.34 1027 10 16 N/A
4:55 am 04:55 Cloudy 30 -1.2 24 -4.5 79 79 SSE 8 13 30.33 1027 10 16 N/A
5:15 am 05:15 Cloudy 30 -1.2 24 -4.5 79 79 SSE 8 13 30.31 1026 10 16 N/A
5:35 am 05:35 Cloudy 30 -1.2 24 -4.5 79 79 SSE 7 11 30.31 1026 10 16 N/A
5:55 am 05:55 Cloudy 30 -1.2 24 -4.5 79 79 SSE 9 15 30.31 1026 10 16 N/A
6:15 am 06:15 Cloudy 30 -1.2 24 -4.6 78 78 SSE 8 13 30.30 1026 10 16 N/A
6:35 am 06:35 Cloudy 30 -1.2 24 -4.5 79 79 SE 12 19 30.30 1026 10 16 N/A
6:55 am 06:55 Cloudy 30 -1.3 24 -4.6 79 79 SSE 10 17 30.29 1026 10 16 N/A
7:15 am 07:15 Cloudy 29 -1.4 24 -4.7 79 79 SSE 12 19 30.30 1026 10 16 N/A
7:35 am 07:35 Cloudy 29 -1.5 23 -5 77 77 SSE 10 17 30.29 1026 10 16 N/A
7:55 am 07:55 Cloudy 29 -1.5 23 -4.9 78 78 SSE 8 13 30.28 1025 10 16 N/A
8:15 am 08:15 Cloudy 29 -1.5 23 -5 77 77 SSE 10 17 30.27 1025 10 16 N/A
8:35 am 08:35 Cloudy 29 -1.5 23 -4.8 78 78 SSE 9 15 30.27 1025 10 16 N/A
8:55 am 08:55 Cloudy 30 -1.2 24 -4.7 77 77 SE 10 17 30.27 1025 10 16 N/A
9:15 am 09:15 Cloudy 30 -1 24 -4.6 77 77 SSE 12 19 30.27 1025 10 16 N/A
9:35 am 09:35 Cloudy 30 -1.2 24 -4.7 77 77 SE 15 24 30.27 1025 10 16 N/A
9:55 am 09:55 Cloudy 30 -1 24 -4.5 77 77 SSE 9 15 30.28 1025 10 16 N/A
10:15 am 10:15 Cloudy 31 -0.8 24 -4.6 76 76 SSE 13 20 30.26 1025 10 16 N/A
10:35 am 10:35 Cloudy 31 -0.7 24 -4.6 75 75 SSE 12 19 30.26 1025 10 16 N/A
10:55 am 10:55 Cloudy 31 -0.6 24 -4.7 74 74 SE 13 20 30.26 1025 10 16 N/A
11:15 am 11:15 Cloudy 31 -0.6 24 -4.7 74 74 SE 14 22 30.24 1024 10 16 N/A
11:35 am 11:35 Cloudy 32 -0.2 24 -4.5 73 73 SE 10 17 30.24 1024 10 16 N/A
11:55 am 11:55 Cloudy 32 undefined 24 -4.4 73 73 SE 14 22 30.23 1024 10 16 N/A
12:15 pm 12:15 Cloudy 32 -0.2 24 -4.4 74 74 SE 12 19 30.23 1024 10 16 N/A
12:35 pm 12:35 Cloudy 32 undefined 24 -4.2 74 74 SE 13 20 30.22 1023 10 16 N/A
12:55 pm 12:55 Cloudy 32 0.2 25 -4.1 73 73 SE 15 24 30.19 1022 10 16 N/A
1:15 pm 13:15 Cloudy 33 0.6 25 -4.1 71 71 SSE 14 22 30.18 1022 10 16 N/A
1:35 pm 13:35 Cloudy 34 1 25 -4 70 70 SE 15 24 30.16 1021 10 16 N/A
1:55 pm 13:55 Cloudy 34 1 25 -4.1 69 69 SE 13 20 30.16 1021 10 16 N/A
2:15 pm 14:15 Cloudy 34 1.2 25 -4 69 69 ESE 13 20 30.15 1021 10 16 N/A
2:35 pm 14:35 Cloudy 34 1.2 25 -4 69 69 ESE 14 22 30.14 1021 10 16 N/A
2:50 pm 14:50 Cloudy 34 1.3 25 -3.9 69 69 SE 13 20 30.13 1020 10 16 N/A
3:15 pm 15:15 Cloudy 34 1.3 25 -3.8 69 69 E 13 20 30.13 1020 10 16 N/A
3:35 pm 15:35 Cloudy 34 1.2 26 -3.6 71 71 ESE 13 20 30.12 1020 10 16 N/A
3:55 pm 15:55 Cloudy 34 1.2 26 -3.6 71 71 SE 12 19 30.13 1020 10 16 N/A
4:15 pm 16:15 Cloudy 34 1.1 26 -3.5 72 72 ESE 9 15 30.13 1020 10 16 N/A
4:35 pm 16:35 Cloudy 34 1.2 26 -3.4 72 72 SE 9 15 30.13 1020 10 16 N/A
4:55 pm 16:55 Cloudy 34 1 26 -3.5 72 72 ESE 10 17 30.15 1021 10 16 N/A
5:15 pm 17:15 Cloudy 34 1.1 26 -3.4 72 72 ESE 10 17 30.14 1021 10 16 N/A
5:35 pm 17:35 Cloudy 34 1.1 26 -3.3 73 73 SE 9 15 30.13 1020 10 16 N/A
5:55 pm 17:55 Cloudy 34 1.1 26 -3.5 72 72 SE 8 13 30.13 1020 10 16 N/A
6:15 pm 18:15 Cloudy 34 1 26 -3.5 72 72 SE 9 15 30.13 1020 10 16 N/A
6:35 pm 18:35 Cloudy 34 1 26 -3.5 72 72 SE 9 15 30.13 1020 10 16 N/A
6:55 pm 18:55 Cloudy 34 1 26 -3.3 73 73 SSE 6 9 30.14 1021 10 16 N/A
7:15 pm 19:15 Cloudy 34 1 26 -3.4 73 73 SE 7 11 30.15 1021 10 16 N/A
7:35 pm 19:35 Cloudy 34 1 26 -3.3 73 73 SE 6 9 30.16 1021 10 16 N/A
7:55 pm 19:55 Cloudy 34 1 26 -3.2 74 74 ESE 5 7 30.17 1022 10 16 N/A
8:15 pm 20:15 Cloudy 33 0.8 26 -3.5 73 73 E 13 20 30.16 1021 10 16 N/A
8:35 pm 20:35 Mostly Cloudy 33 0.6 26 -3.5 74 74 E 12 19 30.17 1022 10 16 N/A
8:55 pm 20:55 Mostly Cloudy 33 0.5 26 -3.5 75 75 ESE 14 22 30.17 1022 10 16 N/A
9:15 pm 21:15 Mostly Cloudy 33 0.3 26 -3.5 76 76 E 12 19 30.18 1022 10 16 N/A
9:35 pm 21:35 Mostly Cloudy 33 0.3 26 -3.4 76 76 E 13 20 30.18 1022 10 16 N/A
9:55 pm 21:55 Mostly Cloudy 32 0.2 26 -3.3 78 78 E 16 26 30.18 1022 10 16 N/A
10:15 pm 22:15 Cloudy 32 0.1 26 -3.1 79 79 E 13 20 30.19 1022 10 16 N/A
10:35 pm 22:35 Cloudy 32 0.1 27 -3 80 80 E 12 19 30.20 1023 10 16 N/A
10:55 pm 22:55 Cloudy 32 undefined 27 -3 80 80 E 12 19 30.22 1023 10 16 N/A
11:15 pm 23:15 Cloudy 32 undefined 27 -2.9 81 81 ENE 7 11 30.24 1024 10 16 N/A
11:35 pm 23:35 Cloudy 32 undefined 27 -2.8 82 82 E 12 19 30.23 1024 10 16 N/A
11:55 pm 23:55 Cloudy 32 undefined 27 -2.8 82 82 ENE 13 20 30.24 1024 10 16 N/A

Powered by AerisWeather